"Time","Value","Approval","myLocation"
"2023-04-20 00:00",17.7254270237046,"Approved","OW311"
"2023-04-20 01:00",17.7264283074541,"Approved","OW311"
"2023-04-20 02:00",17.7264295912036,"Approved","OW311"
"2023-04-20 03:00",17.7264308749531,"Approved","OW311"
"2023-04-20 04:00",17.7274321587026,"Approved","OW311"
"2023-04-20 05:00",17.727433442452,"Approved","OW311"
"2023-04-20 06:00",17.7274347262015,"Approved","OW311"
"2023-04-20 07:00",17.727436009951,"Approved","OW311"
"2023-04-20 08:00",17.7284372937005,"Approved","OW311"
"2023-04-20 09:00",17.72843857745,"Approved","OW311"
"2023-04-20 10:00",17.7294398611994,"Approved","OW311"
"2023-04-20 11:00",17.7304411449489,"Approved","OW311"
"2023-04-20 12:00",17.7314424286984,"Approved","OW311"
"2023-04-20 13:00",17.7314437124479,"Approved","OW311"
"2023-04-20 14:00",17.7314449961974,"Approved","OW311"
"2023-04-20 15:00",17.7314462799469,"Approved","OW311"
"2023-04-20 16:00",17.7304475636963,"Approved","OW311"
"2023-04-20 17:00",17.7314488474458,"Approved","OW311"
"2023-04-20 18:00",17.7304501311953,"Approved","OW311"
"2023-04-20 19:00",17.7304514149448,"Approved","OW311"
"2023-04-20 20:00",17.7304526986943,"Approved","OW311"
"2023-04-20 21:00",17.7304539824438,"Approved","OW311"
"2023-04-20 22:00",17.7304552661932,"Approved","OW311"
"2023-04-20 23:00",17.7314565499427,"Approved","OW311"
"2023-04-21 00:00",17.7314578336922,"Approved","OW311"
"2023-04-21 01:00",17.7314591174417,"Approved","OW311"
"2023-04-21 02:00",17.7314604011912,"Approved","OW311"
"2023-04-21 03:00",17.7324616849406,"Approved","OW311"
"2023-04-21 04:00",17.7324629686901,"Approved","OW311"
"2023-04-21 05:00",17.7324642524396,"Approved","OW311"
"2023-04-21 06:00",17.7324655361891,"Approved","OW311"
"2023-04-21 07:00",17.7334668199386,"Approved","OW311"
"2023-04-21 08:00",17.7334681036881,"Approved","OW311"
"2023-04-21 09:00",17.7344693874375,"Approved","OW311"
"2023-04-21 10:00",17.735470671187,"Approved","OW311"
"2023-04-21 11:00",17.7364719549365,"Approved","OW311"
"2023-04-21 12:00",17.736473238686,"Approved","OW311"
"2023-04-21 13:00",17.7374745224355,"Approved","OW311"
"2023-04-21 14:00",17.7374758061849,"Approved","OW311"
"2023-04-21 15:00",17.7384770899344,"Approved","OW311"
"2023-04-21 16:00",17.7384783736839,"Approved","OW311"
"2023-04-21 17:00",17.7384796574334,"Approved","OW311"
"2023-04-21 18:00",17.7384809411829,"Approved","OW311"
"2023-04-21 19:00",17.7384822249324,"Approved","OW311"
"2023-04-21 20:00",17.7384835086818,"Approved","OW311"
"2023-04-21 21:00",17.7374847924313,"Approved","OW311"
"2023-04-21 22:00",17.7384860761808,"Approved","OW311"
"2023-04-21 23:00",17.7384873599303,"Approved","OW311"
"2023-04-22 00:00",17.7384886436798,"Approved","OW311"
"2023-04-22 01:00",17.7384899274293,"Approved","OW311"
"2023-04-22 02:00",17.7384912111787,"Approved","OW311"
"2023-04-22 03:00",17.7384924949282,"Approved","OW311"
"2023-04-22 04:00",17.7384937786777,"Approved","OW311"
"2023-04-22 05:00",17.7384950624272,"Approved","OW311"
"2023-04-22 06:00",17.7384963461767,"Approved","OW311"
"2023-04-22 07:00",17.7394976299261,"Approved","OW311"
"2023-04-22 08:00",17.7394989136756,"Approved","OW311"
"2023-04-22 09:00",17.7395001974251,"Approved","OW311"
"2023-04-22 10:00",17.7395014811746,"Approved","OW311"
"2023-04-22 11:00",17.7405027649241,"Approved","OW311"
"2023-04-22 12:00",17.7405040486736,"Approved","OW311"
"2023-04-22 13:00",17.740505332423,"Approved","OW311"
"2023-04-22 14:00",17.7415066161725,"Approved","OW311"
"2023-04-22 15:00",17.741507899922,"Approved","OW311"
"2023-04-22 16:00",17.7415091836715,"Approved","OW311"
"2023-04-22 17:00",17.740510467421,"Approved","OW311"
"2023-04-22 18:00",17.7405117511704,"Approved","OW311"
"2023-04-22 19:00",17.7395130349199,"Approved","OW311"
"2023-04-22 20:00",17.7395143186694,"Approved","OW311"
"2023-04-22 21:00",17.7385156024189,"Approved","OW311"
"2023-04-22 22:00",17.7395168861684,"Approved","OW311"
"2023-04-22 23:00",17.7385181699179,"Approved","OW311"
"2023-04-23 00:00",17.7375194536673,"Approved","OW311"
"2023-04-23 01:00",17.7385207374168,"Approved","OW311"
"2023-04-23 02:00",17.7375220211663,"Approved","OW311"
"2023-04-23 03:00",17.7375233049158,"Approved","OW311"
"2023-04-23 04:00",17.7375245886653,"Approved","OW311"
"2023-04-23 05:00",17.7365258724148,"Approved","OW311"
"2023-04-23 06:00",17.7365271561642,"Approved","OW311"
"2023-04-23 07:00",17.7365284399137,"Approved","OW311"
"2023-04-23 08:00",17.7355297236632,"Approved","OW311"
"2023-04-23 09:00",17.7365310074127,"Approved","OW311"
"2023-04-23 10:00",17.7355322911622,"Approved","OW311"
"2023-04-23 11:00",17.7355335749116,"Approved","OW311"
"2023-04-23 12:00",17.7365348586611,"Approved","OW311"
"2023-04-23 13:00",17.7355361424106,"Approved","OW311"
"2023-04-23 14:00",17.7355374261601,"Approved","OW311"
"2023-04-23 15:00",17.7355387099096,"Approved","OW311"
"2023-04-23 16:00",17.7355399936591,"Approved","OW311"
"2023-04-23 17:00",17.7355412774085,"Approved","OW311"
"2023-04-23 18:00",17.734542561158,"Approved","OW311"
"2023-04-23 19:00",17.7335438449075,"Approved","OW311"
"2023-04-23 20:00",17.733545128657,"Approved","OW311"
"2023-04-23 21:00",17.7335464124065,"Approved","OW311"
"2023-04-23 22:00",17.7325476961559,"Approved","OW311"
"2023-04-23 23:00",17.7325489799054,"Approved","OW311"
"2023-04-24 00:00",17.7325502636549,"Approved","OW311"
"2023-04-24 01:00",17.7315515474044,"Approved","OW311"
"2023-04-24 02:00",17.7315528311539,"Approved","OW311"
"2023-04-24 03:00",17.7315541149034,"Approved","OW311"
"2023-04-24 04:00",17.7315553986528,"Approved","OW311"
"2023-04-24 05:00",17.7305566824023,"Approved","OW311"
"2023-04-24 06:00",17.7315579661518,"Approved","OW311"
"2023-04-24 07:00",17.7315592499013,"Approved","OW311"
"2023-04-24 08:00",17.7315605336508,"Approved","OW311"
"2023-04-24 09:00",17.7315618174003,"Approved","OW311"
"2023-04-24 10:00",17.7315631011497,"Approved","OW311"
"2023-04-24 11:00",17.7325643848992,"Approved","OW311"
"2023-04-24 12:00",17.7325656686487,"Approved","OW311"
"2023-04-24 13:00",17.7335669523982,"Approved","OW311"
"2023-04-24 14:00",17.7335682361477,"Approved","OW311"
"2023-04-24 15:00",17.7335695198971,"Approved","OW311"
"2023-04-24 16:00",17.7345708036466,"Approved","OW311"
"2023-04-24 17:00",17.7345720873961,"Approved","OW311"
"2023-04-24 18:00",17.7345733711456,"Approved","OW311"
"2023-04-24 19:00",17.7345746548951,"Approved","OW311"
"2023-04-24 20:00",17.7345759386446,"Approved","OW311"
"2023-04-24 21:00",17.734577222394,"Approved","OW311"
"2023-04-24 22:00",17.7335785061435,"Approved","OW311"
"2023-04-24 23:00",17.733579789893,"Approved","OW311"
"2023-04-25 00:00",17.7345810736425,"Approved","OW311"
"2023-04-25 01:00",17.733582357392,"Approved","OW311"
"2023-04-25 02:00",17.7345836411414,"Approved","OW311"
"2023-04-25 03:00",17.7335849248909,"Approved","OW311"
"2023-04-25 04:00",17.7345862086404,"Approved","OW311"
"2023-04-25 05:00",17.7345874923899,"Approved","OW311"
"2023-04-25 06:00",17.7345887761394,"Approved","OW311"
"2023-04-25 07:00",17.7345900598889,"Approved","OW311"
"2023-04-25 08:00",17.7345913436383,"Approved","OW311"
"2023-04-25 09:00",17.7345926273878,"Approved","OW311"
"2023-04-25 10:00",17.7355939111373,"Approved","OW311"
"2023-04-25 11:00",17.7355951948868,"Approved","OW311"
"2023-04-25 12:00",17.7355964786363,"Approved","OW311"
"2023-04-25 13:00",17.7355977623858,"Approved","OW311"
"2023-04-25 14:00",17.7365990461352,"Approved","OW311"
"2023-04-25 15:00",17.7366003298847,"Approved","OW311"
"2023-04-25 16:00",17.7366016136342,"Approved","OW311"
"2023-04-25 17:00",17.7366028973837,"Approved","OW311"
"2023-04-25 18:00",17.7366041811332,"Approved","OW311"
"2023-04-25 19:00",17.7366054648826,"Approved","OW311"
"2023-04-25 20:00",17.7366067486321,"Approved","OW311"
"2023-04-25 21:00",17.7366080323816,"Approved","OW311"
"2023-04-25 22:00",17.7366093161311,"Approved","OW311"
"2023-04-25 23:00",17.7366105998806,"Approved","OW311"
"2023-04-26 00:00",17.7366118836301,"Approved","OW311"
"2023-04-26 01:00",17.7366131673795,"Approved","OW311"
"2023-04-26 02:00",17.735614451129,"Approved","OW311"
"2023-04-26 03:00",17.7356157348785,"Approved","OW311"
"2023-04-26 04:00",17.735617018628,"Approved","OW311"
"2023-04-26 05:00",17.7356183023775,"Approved","OW311"
"2023-04-26 06:00",17.7356195861269,"Approved","OW311"
"2023-04-26 07:00",17.7356208698764,"Approved","OW311"
"2023-04-26 08:00",17.7356221536259,"Approved","OW311"
"2023-04-26 09:00",17.7356234373754,"Approved","OW311"
"2023-04-26 10:00",17.7356247211249,"Approved","OW311"
"2023-04-26 11:00",17.7356260048744,"Approved","OW311"
"2023-04-26 12:00",17.7356272886238,"Approved","OW311"
"2023-04-26 13:00",17.7356285723733,"Approved","OW311"
"2023-04-26 14:00",17.7356298561228,"Approved","OW311"
"2023-04-26 15:00",17.7356311398723,"Approved","OW311"
"2023-04-26 16:00",17.7356324236218,"Approved","OW311"
"2023-04-26 17:00",17.7356337073712,"Approved","OW311"
"2023-04-26 18:00",17.7356349911207,"Approved","OW311"
"2023-04-26 19:00",17.7356362748702,"Approved","OW311"
"2023-04-26 20:00",17.7356375586197,"Approved","OW311"
"2023-04-26 21:00",17.7356388423692,"Approved","OW311"
"2023-04-26 22:00",17.7366401261187,"Approved","OW311"
"2023-04-26 23:00",17.7356414098681,"Approved","OW311"
"2023-04-27 00:00",17.7366426936176,"Approved","OW311"
"2023-04-27 01:00",17.7366439773671,"Approved","OW311"
"2023-04-27 02:00",17.7356452611166,"Approved","OW311"
"2023-04-27 03:00",17.7366465448661,"Approved","OW311"
"2023-04-27 04:00",17.7366478286156,"Approved","OW311"
"2023-04-27 05:00",17.736649112365,"Approved","OW311"
"2023-04-27 06:00",17.7366503961145,"Approved","OW311"
"2023-04-27 07:00",17.737651679864,"Approved","OW311"
"2023-04-27 08:00",17.7376529636135,"Approved","OW311"
"2023-04-27 09:00",17.737654247363,"Approved","OW311"
"2023-04-27 10:00",17.7386555311124,"Approved","OW311"
"2023-04-27 11:00",17.7376568148619,"Approved","OW311"
"2023-04-27 12:00",17.7386580986114,"Approved","OW311"
"2023-04-27 13:00",17.7396593823609,"Approved","OW311"
"2023-04-27 14:00",17.7396606661104,"Approved","OW311"
"2023-04-27 15:00",17.7396619498599,"Approved","OW311"
"2023-04-27 16:00",17.7396632336093,"Approved","OW311"
"2023-04-27 17:00",17.7406645173588,"Approved","OW311"
"2023-04-27 18:00",17.7406658011083,"Approved","OW311"
"2023-04-27 19:00",17.7396670848578,"Approved","OW311"
"2023-04-27 20:00",17.7406683686073,"Approved","OW311"
"2023-04-27 21:00",17.7406696523568,"Approved","OW311"
"2023-04-27 22:00",17.7406709361062,"Approved","OW311"
"2023-04-27 23:00",17.7406722198557,"Approved","OW311"
"2023-04-28 00:00",17.7406735036052,"Approved","OW311"
"2023-04-28 01:00",17.7406747873547,"Approved","OW311"
"2023-04-28 02:00",17.7396760711042,"Approved","OW311"
"2023-04-28 03:00",17.7396773548536,"Approved","OW311"
"2023-04-28 04:00",17.7406786386031,"Approved","OW311"
"2023-04-28 05:00",17.7406799223526,"Approved","OW311"
"2023-04-28 06:00",17.7406812061021,"Approved","OW311"
"2023-04-28 07:00",17.7406824898516,"Approved","OW311"
"2023-04-28 08:00",17.7406837736011,"Approved","OW311"
"2023-04-28 09:00",17.7406850573505,"Approved","OW311"
"2023-04-28 10:00",17.7406863411,"Approved","OW311"
"2023-04-28 11:00",17.7406876248495,"Approved","OW311"
"2023-04-28 12:00",17.740688908599,"Approved","OW311"
"2023-04-28 13:00",17.7406901923485,"Approved","OW311"
"2023-04-28 14:00",17.7406914760979,"Approved","OW311"
"2023-04-28 15:00",17.7406927598474,"Approved","OW311"
"2023-04-28 16:00",17.7406940435969,"Approved","OW311"
"2023-04-28 17:00",17.7406953273464,"Approved","OW311"
"2023-04-28 18:00",17.7406966110959,"Approved","OW311"
"2023-04-28 19:00",17.7396978948454,"Approved","OW311"
"2023-04-28 20:00",17.7406991785948,"Approved","OW311"
"2023-04-28 21:00",17.7407004623443,"Approved","OW311"
"2023-04-28 22:00",17.7407017460938,"Approved","OW311"
"2023-04-28 23:00",17.7407030298433,"Approved","OW311"
"2023-04-29 00:00",17.7397043135928,"Approved","OW311"
"2023-04-29 01:00",17.7407055973422,"Approved","OW311"
"2023-04-29 02:00",17.7397068810917,"Approved","OW311"
"2023-04-29 03:00",17.7397081648412,"Approved","OW311"
"2023-04-29 04:00",17.7397094485907,"Approved","OW311"
"2023-04-29 05:00",17.7387107323402,"Approved","OW311"
"2023-04-29 06:00",17.7387120160897,"Approved","OW311"
"2023-04-29 07:00",17.7387132998391,"Approved","OW311"
"2023-04-29 08:00",17.7387145835886,"Approved","OW311"
"2023-04-29 09:00",17.7387158673381,"Approved","OW311"
"2023-04-29 10:00",17.7387171510876,"Approved","OW311"
"2023-04-29 11:00",17.7387184348371,"Approved","OW311"
"2023-04-29 12:00",17.7387197185866,"Approved","OW311"
"2023-04-29 13:00",17.738721002336,"Approved","OW311"
"2023-04-29 14:00",17.7387222860855,"Approved","OW311"
"2023-04-29 15:00",17.738723569835,"Approved","OW311"
"2023-04-29 16:00",17.7387248535845,"Approved","OW311"
"2023-04-29 17:00",17.737726137334,"Approved","OW311"
"2023-04-29 18:00",17.7377274210834,"Approved","OW311"
"2023-04-29 19:00",17.7377287048329,"Approved","OW311"
"2023-04-29 20:00",17.7367299885824,"Approved","OW311"
"2023-04-29 21:00",17.7367312723319,"Approved","OW311"
"2023-04-29 22:00",17.7367325560814,"Approved","OW311"
"2023-04-29 23:00",17.7367338398309,"Approved","OW311"
"2023-04-30 00:00",17.7367351235803,"Approved","OW311"
"2023-04-30 01:00",17.7357364073298,"Approved","OW311"
"2023-04-30 02:00",17.7357376910793,"Approved","OW311"
"2023-04-30 03:00",17.7357389748288,"Approved","OW311"
"2023-04-30 04:00",17.7347402585783,"Approved","OW311"
"2023-04-30 05:00",17.7347415423277,"Approved","OW311"
"2023-04-30 06:00",17.7347428260772,"Approved","OW311"
"2023-04-30 07:00",17.7347441098267,"Approved","OW311"
"2023-04-30 08:00",17.7337453935762,"Approved","OW311"
"2023-04-30 09:00",17.7337466773257,"Approved","OW311"
"2023-04-30 10:00",17.7337479610752,"Approved","OW311"
"2023-04-30 11:00",17.7337492448246,"Approved","OW311"
"2023-04-30 12:00",17.7327505285741,"Approved","OW311"
"2023-04-30 13:00",17.7327518123236,"Approved","OW311"
"2023-04-30 14:00",17.7317530960731,"Approved","OW311"
"2023-04-30 15:00",17.7317543798226,"Approved","OW311"
"2023-04-30 16:00",17.7307556635721,"Approved","OW311"
"2023-04-30 17:00",17.7307569473215,"Approved","OW311"
"2023-04-30 18:00",17.729758231071,"Approved","OW311"
"2023-04-30 19:00",17.7287595148205,"Approved","OW311"
"2023-04-30 20:00",17.72876079857,"Approved","OW311"
"2023-04-30 21:00",17.7287620823195,"Approved","OW311"
"2023-04-30 22:00",17.7287633660689,"Approved","OW311"
"2023-04-30 23:00",17.7287646498184,"Approved","OW311"
"2023-05-01 00:00",17.7287659335679,"Approved","OW311"
"2023-05-01 01:00",17.7277672173174,"Approved","OW311"
"2023-05-01 02:00",17.7277685010669,"Approved","OW311"
"2023-05-01 03:00",17.7277697848164,"Approved","OW311"
"2023-05-01 04:00",17.7267710685658,"Approved","OW311"
"2023-05-01 05:00",17.7267723523153,"Approved","OW311"
"2023-05-01 06:00",17.7267736360648,"Approved","OW311"
"2023-05-01 07:00",17.7267749198143,"Approved","OW311"
"2023-05-01 08:00",17.7257762035638,"Approved","OW311"
"2023-05-01 09:00",17.7257774873132,"Approved","OW311"
"2023-05-01 10:00",17.7267787710627,"Approved","OW311"
"2023-05-01 11:00",17.7267800548122,"Approved","OW311"
"2023-05-01 12:00",17.7257813385617,"Approved","OW311"
"2023-05-01 13:00",17.7247826223112,"Approved","OW311"
"2023-05-01 14:00",17.7247839060607,"Approved","OW311"
"2023-05-01 15:00",17.7247851898101,"Approved","OW311"
"2023-05-01 16:00",17.7247864735596,"Approved","OW311"
"2023-05-01 17:00",17.7227877573091,"Approved","OW311"
"2023-05-01 18:00",17.7227890410586,"Approved","OW311"
"2023-05-01 19:00",17.7227903248081,"Approved","OW311"
"2023-05-01 20:00",17.7227916085576,"Approved","OW311"
"2023-05-01 21:00",17.722792892307,"Approved","OW311"
"2023-05-01 22:00",17.7227941760565,"Approved","OW311"
"2023-05-01 23:00",17.722795459806,"Approved","OW311"
"2023-05-02 00:00",17.7227967435555,"Approved","OW311"
"2023-05-02 01:00",17.722798027305,"Approved","OW311"
"2023-05-02 02:00",17.7217993110544,"Approved","OW311"
"2023-05-02 03:00",17.7218005948039,"Approved","OW311"
"2023-05-02 04:00",17.7218018785534,"Approved","OW311"
"2023-05-02 05:00",17.7218031623029,"Approved","OW311"
"2023-05-02 06:00",17.7218044460524,"Approved","OW311"
"2023-05-02 07:00",17.7208057298019,"Approved","OW311"
"2023-05-02 08:00",17.7218070135513,"Approved","OW311"
"2023-05-02 09:00",17.7218082973008,"Approved","OW311"
"2023-05-02 10:00",17.7218095810503,"Approved","OW311"
"2023-05-02 11:00",17.7208108647998,"Approved","OW311"
"2023-05-02 12:00",17.7208121485493,"Approved","OW311"
"2023-05-02 13:00",17.7208134322987,"Approved","OW311"
"2023-05-02 14:00",17.7198147160482,"Approved","OW311"
"2023-05-02 15:00",17.7198159997977,"Approved","OW311"
"2023-05-02 16:00",17.7188172835472,"Approved","OW311"
"2023-05-02 17:00",17.7188185672967,"Approved","OW311"
"2023-05-02 18:00",17.7178198510462,"Approved","OW311"
"2023-05-02 19:00",17.7178211347956,"Approved","OW311"
"2023-05-02 20:00",17.7168224185451,"Approved","OW311"
"2023-05-02 21:00",17.7168237022946,"Approved","OW311"
"2023-05-02 22:00",17.7168249860441,"Approved","OW311"
"2023-05-02 23:00",17.7168262697936,"Approved","OW311"
"2023-05-03 00:00",17.716827553543,"Approved","OW311"
"2023-05-03 01:00",17.7158288372925,"Approved","OW311"
"2023-05-03 02:00",17.715830121042,"Approved","OW311"
"2023-05-03 03:00",17.7158314047915,"Approved","OW311"
"2023-05-03 04:00",17.715832688541,"Approved","OW311"
"2023-05-03 05:00",17.7158339722905,"Approved","OW311"
"2023-05-03 06:00",17.7148352560399,"Approved","OW311"
"2023-05-03 07:00",17.7148365397894,"Approved","OW311"
"2023-05-03 08:00",17.7148378235389,"Approved","OW311"
"2023-05-03 09:00",17.7148391072884,"Approved","OW311"
"2023-05-03 10:00",17.7158403910379,"Approved","OW311"
"2023-05-03 11:00",17.7158416747874,"Approved","OW311"
"2023-05-03 12:00",17.7148429585368,"Approved","OW311"
"2023-05-03 13:00",17.7138442422863,"Approved","OW311"
"2023-05-03 14:00",17.7148455260358,"Approved","OW311"
"2023-05-03 15:00",17.7138468097853,"Approved","OW311"
"2023-05-03 16:00",17.7128480935348,"Approved","OW311"
"2023-05-03 17:00",17.7118493772842,"Approved","OW311"
"2023-05-03 18:00",17.7118506610337,"Approved","OW311"
"2023-05-03 19:00",17.7108519447832,"Approved","OW311"
"2023-05-03 20:00",17.7118532285327,"Approved","OW311"
"2023-05-03 21:00",17.7108545122822,"Approved","OW311"
"2023-05-03 22:00",17.7108557960317,"Approved","OW311"
"2023-05-03 23:00",17.7108570797811,"Approved","OW311"
"2023-05-04 00:00",17.7098583635306,"Approved","OW311"
"2023-05-04 01:00",17.7108596472801,"Approved","OW311"
"2023-05-04 02:00",17.7098609310296,"Approved","OW311"
"2023-05-04 03:00",17.7088622147791,"Approved","OW311"
"2023-05-04 04:00",17.7088634985286,"Approved","OW311"
"2023-05-04 05:00",17.708864782278,"Approved","OW311"
"2023-05-04 06:00",17.7078660660275,"Approved","OW311"
"2023-05-04 07:00",17.708867349777,"Approved","OW311"
"2023-05-04 08:00",17.7078686335265,"Approved","OW311"
"2023-05-04 09:00",17.707869917276,"Approved","OW311"
"2023-05-04 10:00",17.7078712010254,"Approved","OW311"
"2023-05-04 11:00",17.7088724847749,"Approved","OW311"
"2023-05-04 12:00",17.7078737685244,"Approved","OW311"
"2023-05-04 13:00",17.7078750522739,"Approved","OW311"
"2023-05-04 14:00",17.7078763360234,"Approved","OW311"
"2023-05-04 15:00",17.7068776197729,"Approved","OW311"
"2023-05-04 16:00",17.7058789035223,"Approved","OW311"
"2023-05-04 17:00",17.7048801872718,"Approved","OW311"
"2023-05-04 18:00",17.7038814710213,"Approved","OW311"
"2023-05-04 19:00",17.7028827547708,"Approved","OW311"
"2023-05-04 20:00",17.7028840385203,"Approved","OW311"
"2023-05-04 21:00",17.7018853222697,"Approved","OW311"
"2023-05-04 22:00",17.7018866060192,"Approved","OW311"
"2023-05-04 23:00",17.7008878897687,"Approved","OW311"
"2023-05-05 00:00",17.7008891735182,"Approved","OW311"
"2023-05-05 01:00",17.7008904572677,"Approved","OW311"
"2023-05-05 02:00",17.7008917410172,"Approved","OW311"
"2023-05-05 03:00",17.6998930247666,"Approved","OW311"
"2023-05-05 04:00",17.6998943085161,"Approved","OW311"
"2023-05-05 05:00",17.6988955922656,"Approved","OW311"
"2023-05-05 06:00",17.6988968760151,"Approved","OW311"
"2023-05-05 07:00",17.6988981597646,"Approved","OW311"
"2023-05-05 08:00",17.6988994435141,"Approved","OW311"
"2023-05-05 09:00",17.6989007272635,"Approved","OW311"
"2023-05-05 10:00",17.698902011013,"Approved","OW311"
"2023-05-05 11:00",17.6989032947625,"Approved","OW311"
"2023-05-05 12:00",17.699904578512,"Approved","OW311"
"2023-05-05 13:00",17.6999058622615,"Approved","OW311"
"2023-05-05 14:00",17.6999071460109,"Approved","OW311"
"2023-05-05 15:00",17.6999084297604,"Approved","OW311"
"2023-05-05 16:00",17.6989097135099,"Approved","OW311"
"2023-05-05 17:00",17.6989109972594,"Approved","OW311"
"2023-05-05 18:00",17.6979122810089,"Approved","OW311"
"2023-05-05 19:00",17.6969135647584,"Approved","OW311"
"2023-05-05 20:00",17.6979148485078,"Approved","OW311"
"2023-05-05 21:00",17.6969161322573,"Approved","OW311"
"2023-05-05 22:00",17.6959174160068,"Approved","OW311"
"2023-05-05 23:00",17.6959186997563,"Approved","OW311"
"2023-05-06 00:00",17.6959199835058,"Approved","OW311"
"2023-05-06 01:00",17.6959212672552,"Approved","OW311"
"2023-05-06 02:00",17.6949225510047,"Approved","OW311"
"2023-05-06 03:00",17.6949238347542,"Approved","OW311"
"2023-05-06 04:00",17.6949251185037,"Approved","OW311"
"2023-05-06 05:00",17.6939264022532,"Approved","OW311"
"2023-05-06 06:00",17.6939276860027,"Approved","OW311"
"2023-05-06 07:00",17.6939289697521,"Approved","OW311"
"2023-05-06 08:00",17.6939302535016,"Approved","OW311"
"2023-05-06 09:00",17.6939315372511,"Approved","OW311"
"2023-05-06 10:00",17.6939328210006,"Approved","OW311"
"2023-05-06 11:00",17.6939341047501,"Approved","OW311"
"2023-05-06 12:00",17.6939353884995,"Approved","OW311"
"2023-05-06 13:00",17.693936672249,"Approved","OW311"
"2023-05-06 14:00",17.6939379559985,"Approved","OW311"
"2023-05-06 15:00",17.694939239748,"Approved","OW311"
"2023-05-06 16:00",17.6939405234975,"Approved","OW311"
"2023-05-06 17:00",17.692941807247,"Approved","OW311"
"2023-05-06 18:00",17.6929430909964,"Approved","OW311"
"2023-05-06 19:00",17.6919443747459,"Approved","OW311"
"2023-05-06 20:00",17.6919456584954,"Approved","OW311"
"2023-05-06 21:00",17.6919469422449,"Approved","OW311"
"2023-05-06 22:00",17.6909482259944,"Approved","OW311"
"2023-05-06 23:00",17.6909495097439,"Approved","OW311"
"2023-05-07 00:00",17.6909507934933,"Approved","OW311"
"2023-05-07 01:00",17.6909520772428,"Approved","OW311"
"2023-05-07 02:00",17.6899533609923,"Approved","OW311"
"2023-05-07 03:00",17.6909546447418,"Approved","OW311"
"2023-05-07 04:00",17.6899559284913,"Approved","OW311"
"2023-05-07 05:00",17.6899572122407,"Approved","OW311"
"2023-05-07 06:00",17.6899584959902,"Approved","OW311"
"2023-05-07 07:00",17.6899597797397,"Approved","OW311"
"2023-05-07 08:00",17.6899610634892,"Approved","OW311"
"2023-05-07 09:00",17.6899623472387,"Approved","OW311"
"2023-05-07 10:00",17.6899636309882,"Approved","OW311"
"2023-05-07 11:00",17.6909649147376,"Approved","OW311"
"2023-05-07 12:00",17.6909661984871,"Approved","OW311"
"2023-05-07 13:00",17.6919674822366,"Approved","OW311"
"2023-05-07 14:00",17.6919687659861,"Approved","OW311"
"2023-05-07 15:00",17.6919700497356,"Approved","OW311"
"2023-05-07 16:00",17.691971333485,"Approved","OW311"
"2023-05-07 17:00",17.6919726172345,"Approved","OW311"
"2023-05-07 18:00",17.690973900984,"Approved","OW311"
"2023-05-07 19:00",17.6909751847335,"Approved","OW311"